Tracking 28790 objects as of 19-Apr-2024
HD Live streaming from Space Station
objects crossing your sky now

SL-16 DEB

Track SL-16 DEB now!
10-day predictions


NORAD ID: 22474
Int'l Code: 1992-093FP
Perigee: 764.9 km
Apogee: 1,003.9 km
Inclination: 71.3 °
Period: 102.5 minutes
Semi major axis: 7255 km
RCS: 0.0673 m2 (small)
Launch date: December 25, 1992
Source: Commonwealth of Independent States (former USSR) (CIS)
Launch site: TYURATAM MISSILE AND SPACE COMPLEX (TTMTR)

Note: This is SATELLITE DEBRIS
Your satellite tracking list
Your tracking list is empty




NASA's NSSDC Master Catalog

Two Line Element Set (TLE):
1 22474U 92093FP  24109.32647342  .00013093  00000-0  72423-2 0  9995
2 22474  71.3023  86.3974 0164732 300.1840  58.3048 14.04782446578887
Source of the keplerian elements: AFSPC